This demonstration page uses our WeatherBlox Daily Observations layout. Learn more.

38.88101, -77.10428

Hourly Observations for March 10, 2017

Temp ( °F °C ) Dew Point ( °F °C ) Humidity (%) Winds ( mph kmh ) Pressure ( in mb ) Visibility ( mi km ) Precip ( " mm )
12:52 am 00:52 Mostly Clear 55 12.8 33 0.6 44 44 NE 9 15 29.85 1011 10 16.09344 0 0
1:52 am 01:52 Partly Cloudy 53 11.7 26 -3.3 35 35 NNE 13 20 29.85 1011 10 16.09344 0 0
2:52 am 02:52 Cloudy 52 11.1 25 -3.9 35 35 NNE 14 22 29.83 1010 10 16.09344 0 0
3:52 am 03:52 Cloudy 50 10 27 -2.8 41 41 NE 18 30 29.83 1010 10 16.09344 0 0
4:52 am 04:52 Cloudy 49 9.4 26 -3.3 41 41 NE 10 17 29.83 1010 10 16.09344 0 0
5:52 am 05:52 Cloudy 48 8.9 26 -3.3 42 42 NE 17 28 29.8 1009 10 16.09344 0 0
6:18 am 06:18 Cloudy 48 8.9 26 -3.3 42 42 NE 13 20 29.83 1010 10 16.09344 0 0
6:52 am 06:52 Cloudy 48 8.9 30 -1.1 50 50 NNE 15 24 29.83 1010 10 16.09344 0 0
7:52 am 07:52 Cloudy with Light Rain 46 7.8 34 1.1 63 63 N 8 13 29.83 1010 10 16.09344 0.001 0.001
8:52 am 08:52 Cloudy 46 7.8 33 0.6 61 61 N 15 24 29.83 1010 10 16.09344 0.001 0.001
9:22 am 09:22 Cloudy with Light Rain 43 6 37 3 81 81 NNW 21 33 29.88 1012 7 11.265408 0 0
9:47 am 09:47 Cloudy with Light Rain 39 4 36 2 87 87 NNW 22 35 29.88 1012 4 6.437376 0.04 1.016
9:52 am 09:52 Cloudy with Light Rain 38 3.3 36 2.2 93 93 NNW 20 31 29.88 1012 5 8.04672 0.04 1.016
10:10 am 10:10 Cloudy with Light Rain/Snow 37 3 36 2 93 93 NNW 18 30 29.91 1013 5 8.04672 0 0
10:52 am 10:52 Cloudy with Light Rain/Snow 37 2.8 34 1.1 89 89 N 21 33 29.91 1013 9 14.484096 0.05 1.27
11:32 am 11:32 Cloudy with Light Rain 37 3 34 1 87 87 N 23 37 29.94 1014 10 16.09344 0 0
11:52 am 11:52 Cloudy 39 3.9 34 1.1 82 82 NNW 18 30 29.91 1013 10 16.09344 0.001 0.001
12:52 pm 12:52 Mostly Cloudy 41 5 31 -0.6 67 67 N 18 30 29.91 1013 10 16.09344 0 0
1:52 pm 13:52 Cloudy 43 6.1 28 -2.2 56 56 NW 16 26 29.94 1014 10 16.09344 0 0
2:03 pm 14:03 Windy with Snow Likely 43 6 27 -3 53 53 NNW 22 35 29.97 1015 10 16.09344 0 0
2:52 pm 14:52 Mostly Cloudy 43 6.1 28 -2.2 56 56 NW 14 22 29.94 1014 10 16.09344 0.001 0.001
3:52 pm 15:52 Mostly Cloudy 46 7.8 21 -6.1 37 37 NW 18 30 29.94 1014 10 16.09344 0 0
4:52 pm 16:52 Cloudy 42 5.6 19 -7.2 40 40 NW 20 31 29.97 1015 10 16.09344 0.001 0.001
5:52 pm 17:52 Mostly Cloudy 40 4.4 16 -8.9 38 38 NW 24 39 30 1016 10 16.09344 0 0
6:52 pm 18:52 Mostly Cloudy 40 4.4 15 -9.4 36 36 WNW 16 26 30.03 1017 10 16.09344 0 0
7:52 pm 19:52 Mostly Cloudy 37 2.8 17 -8.3 44 44 WNW 18 30 30.09 1019 10 16.09344 0 0
8:52 pm 20:52 Partly Cloudy 35 1.7 12 -11.1 38 38 NW 17 28 30.12 1020 10 16.09344 0 0
9:52 pm 21:52 Mostly Clear 33 0.6 12 -11.1 42 42 NNW 13 20 30.15 1021 10 16.09344 0 0
10:52 pm 22:52 Mostly Clear 32 0 10 -12.2 40 40 NNW 12 19 30.15 1021 10 16.09344 0 0
11:52 pm 23:52 Mostly Clear 31 -0.6 10 -12.2 42 42 NW 13 20 30.15 1021 10 16.09344 0 0

Powered by AerisWeather